Regional Weather Roundup
Issued by NWS

Home | Current Version | Previous Version | Graphics & Text | Print | Product List | Glossary On
Versions: 1 2 3 4 5 6 7 8 9 10 11 12 13 14 15 16 17 18 19 20 21 22 23 24 25 26 27 28 29 30 31 32 33 34 35 36 37 38 39 40 41 42 43 44 45 46 47 48 49 50
000
ASUS43 KTOP 222159
RWRKS

WEATHER ROUNDUP FOR KANSAS
NATIONAL WEATHER SERVICE GOODLAND KS
400 PM CST SUN JAN 22 2017

NOTE:  "FAIR" INDICATES FEW OR NO CLOUDS BELOW 12,000 FEET WITH NO
SIGNIFICANT WEATHER AND/OR OBSTRUCTIONS TO VISIBILITY.

KSZ001>006-013>018-027>032-041>047-222300-
NORTHWEST KANSAS

CITY           SKY/WX    TMP DP  RH WIND       PRES   REMARKS
GOODLAND       SUNNY     48  25  40 N13       29.89S
HAYS           SUNNY     52  25  35 N16       29.87R
HILL CITY      SUNNY     52  26  36 NW12      29.87S
RUSSELL        SUNNY     52  27  38 N17       29.84R
$$

KSZ061>065-074>080-084>089-222300-
SOUTHWEST KANSAS

CITY           SKY/WX    TMP DP  RH WIND       PRES   REMARKS
DODGE CITY     SUNNY     52  28  39 N15G23    29.88R
ELKHART          N/A     50  24  36 NW14        N/A
GARDEN CITY    SUNNY     50  29  44 N13       29.90R
GREAT BEND     SUNNY     52  27  38 NW20      29.86R
LIBERAL          N/A     54  28  37 NW18      29.92R
$$

KSZ066>073-081>083-090>101-222300-
SOUTHEAST KANSAS

CITY           SKY/WX    TMP DP  RH WIND       PRES   REMARKS
CHANUTE        MOSUNNY   48  37  65 N21G26    29.74R
COFFEYVILLE    SUNNY     56  36  47 N15       29.71R
HUTCHINSON     SUNNY     53  26  35 N15G28    29.82R
MEDICINE LODGE   N/A     54  26  34 N20G26    29.83R
NEWTON         SUNNY     48  31  51 N26       29.81R
PARSONS        SUNNY     53  36  52 N22G28    29.72R
WICHITA INTL   SUNNY     52  29  41 N21G31    29.80R
WICHITA JABRA  SUNNY     50  32  50 NW20G26   29.80R
WINFIELD       SUNNY     53  31  42 NW21G30   29.79R
$$

KSZ007>012-019>026-033>040-048>060-102>105-222300-
NORTHEAST KANSAS

CITY           SKY/WX    TMP DP  RH WIND       PRES   REMARKS
CONCORDIA      SUNNY     46  34  62 N13       29.84R
EMPORIA        SUNNY     43  32  65 N18G30    29.78R
LAWRENCE       CLOUDY    38  34  85 NW9       29.78R
MANHATTAN      PTSUNNY   41  31  67 NW6       29.84R
OLATHE IND     CLOUDY    34  31  88 N23       29.76R WCI  22
OLATHE EXE     CLOUDY    34  31  88 N17G24    29.74R WCI  23
SALINA         SUNNY     50  30  46 N13G25    29.84R
TOPEKA BILLARD CLOUDY    40  33  76 NW13      29.80R WCI  32
TOPEKA FORBES  CLOUDY    40  32  73 NW15      29.78R WCI  32
$$



USA.gov is the U.S. government's official web portal to all federal, state and local government web resources and services.